Regional Weather Roundup
Issued by NWS

Home | Current Version | Previous Version | Graphics & Text | Print | Product List | Glossary On
Versions: 1 2 3 4 5 6 7 8 9 10 11 12 13 14 15 16 17 18 19 20 21 22 23 24 25 26 27 28 29 30 31 32 33 34 35 36 37 38 39 40 41 42 43 44 45 46 47 48 49 50
133
ASUS43 KLSX 251910
RWRMO

WEATHER SUMMARY FOR MISSOURI
NATIONAL WEATHER SERVICE SPRINGFIELD MO
200 PM CDT THU MAY 25 2017

NOTE: "FAIR" INDICATES FEW OR NO CLOUDS BELOW 12,000 FEET WITH NO
       SIGNIFICANT WEATHER AND/OR OBSTRUCTIONS TO VISIBILITY.
       CURRENT SKY AND/OR WEATHER CONDITIONS ARE NOT AVAILABLE FOR
       CHILLICOTHE AND FARMINGTON.

MOZ001>031-035>038-043-044-053-054-252000-
...NORTHERN AND WESTERN MISSOURI...

CITY           SKY/WX    TMP DP  RH WIND       PRES   REMARKS
KANSAS CTY INT MOSUNNY   73  54  51 S10G20    29.65F
KANSAS C DTWN  SUNNY     75  52  44 S12G18    29.65F
LEE`S SUMMIT   SUNNY     72  52  49 SE14      29.67F
ST JOSEPH      SUNNY     74  52  46 S12G23    29.65F
CHILLICOTHE      N/A     71  52  50 VRB7      29.70F
KIRKSVILLE     MOSUNNY   70  50  49 MISG      29.71F

$$
MOZ066>068-077>081-088>096-101>105-252000-
...SOUTHWEST MISSOURI...

CITY           SKY/WX    TMP DP  RH WIND       PRES   REMARKS
SPRINGFIELD    SUNNY     73  50  44 S9        29.72F
JOPLIN         SUNNY     78  56  46 S13       29.68F
BRANSON        MOSUNNY   73  50  43 S5        29.76F

$$
MOZ032>034-039>042-045>050-055>058-069>072-252000-
...CENTRAL MISSOURI...

CITY           SKY/WX    TMP DP  RH WIND       PRES   REMARKS
COLUMBIA       MOSUNNY   71  51  49 S8        29.73F
JEFFERSON CITY SUNNY     73  49  42 SW8       29.72F
ROLLA          SUNNY     69  52  54 S5        29.73F
SEDALIA        SUNNY     73  52  47 S12       29.71F
WHITEMAN AFB   SUNNY     72  51  48 S12       29.68F
WARRENSBURG    SUNNY     70  52  52 SE10      29.69F
OSAGE BEACH    SUNNY     72  51  47 SW8       29.73

$$
MOZ051-052-059>065-252000-
...EAST CENTRAL MISSOURI...

CITY           SKY/WX    TMP DP  RH WIND       PRES   REMARKS
ST LOUIS INTL  MOSUNNY   76  52  43 W8        29.72F
SPIRIT OF STL  MOSUNNY   73  53  49 W9        29.72S
ST CHARLES     MOSUNNY   73  50  44 W13       29.71F

$$
MOZ072>076-082>087-097>100-106>115-252000-
...SOUTH CENTRAL AND SOUTHEAST MISSOURI...

CITY           SKY/WX    TMP DP  RH WIND       PRES   REMARKS
CAPE GIRARDEAU PTSUNNY   72  49  44 W9        29.74S
FARMINGTON     MOSUNNY   71  52  50 SW10G16   29.75F
POPLAR BLUFF   MOSUNNY   72  52  49 SW8       29.75F
WEST PLAINS    SUNNY     71  51  49 S8        29.77F

$$




USA.gov is the U.S. government's official web portal to all federal, state and local government web resources and services.